Helicity
-21 -34 -41 -42 -16 2 10 30 32 31 25 27 25 27 27 17 14 5 15 17 14 22
0 -16 -12 -17 -24 -39 1 47 62 36 24 25 35 27 21 33 17 26 27 18 22 23
18 6 2 5 9 7 9 22 49 32 23 28 40 38 39 32 18 28 25 26 24 26
16 16 7 11 10 4 -3 4 6 22 33 35 36 42 50 43 45 44 36 26 32 39
2 6 20 12 17 11 0 -7 -8 -16 18 26 36 50 58 57 46 47 39 37 43 37
35 33 28 27 13 22 18 5 4 18 26 32 31 36 48 49 48 46 39 39 44 48
42 35 29 24 29 30 39 33 25 13 14 25 36 44 50 51 38 52 55 61 60 55
34 44 44 57 53 58 39 40 29 36 35 47 47 64 46 79 87 74 67 54 80 80
67 81 47 69 81 81 67 76 72 56 52 63 57 196 191 138 68 71 71 82 80 64
91 103 71 84 107 112 73 71 87 77 77 89 148 168 198 174 117 117 117 99 90 83
142 145 120 171 164 171 131 124 128 136 120 116 142 184 170 162 133 113 94 95 94 108
152 119 127 186 243 188 143 138 127 109 106 121 150 157 132 127 142 104 77 64 81 102
201 205 144 174 207 173 154 119 117 120 145 164 160 139 120 124 109 82 82 102 116 112
465 412 142 116 139 146 144 133 143 133 125 122 128 131 115 90 71 81 106 133 133 140
Wind_Speed
42 41 45 37 62 63 61 29 25 14 13 16 23 34 37 41 43 47 46 45 46 50
38 40 37 39 29 35 9 33 38 32 22 15 13 25 38 41 53 48 49 51 47 43
39 37 39 28 26 17 13 10 34 24 22 21 26 32 37 43 49 48 49 48 52 49
33 35 29 25 22 24 20 12 9 19 32 32 34 37 38 41 52 50 49 54 51 51
25 24 23 30 29 24 28 26 22 24 61 59 55 46 39 36 45 50 50 51 48 51
23 20 20 21 23 22 20 26 20 7 11 15 12 13 33 36 43 52 62 63 60 61
23 21 14 14 10 10 8 14 13 9 11 11 16 25 33 41 14 39 60 60 57 57
17 14 14 12 10 13 14 13 12 9 12 20 17 32 20 33 35 31 29 55 57 60
17 15 13 17 23 19 27 22 28 17 20 22 25 39 40 40 35 37 40 44 43 69
20 20 18 23 26 37 42 33 31 31 30 30 33 42 47 49 44 44 42 40 41 63
20 29 29 24 33 34 35 35 34 34 36 38 37 45 52 56 52 45 40 40 47 56
23 42 43 31 26 32 32 33 34 38 40 44 48 48 54 60 62 55 46 35 35 40
16 21 36 36 29 29 29 30 31 39 44 48 53 46 54 61 63 64 59 53 50 46
31 27 41 43 29 26 29 30 37 44 46 46 49 54 54 60 65 68 72 72 70 61
Wind_Direction
169 170 177 175 208 229 241 286 295 306 309 309 308 298 297 294 296 292 295 298 298 292
170 176 176 180 178 182 179 285 283 293 300 308 317 309 298 299 286 297 295 292 301 307
170 174 177 173 178 181 194 275 289 300 302 302 302 301 301 300 295 297 296 298 296 298
167 169 171 174 175 176 180 194 222 292 294 297 299 300 302 303 296 300 302 296 295 295
164 166 170 175 178 178 181 181 185 189 266 272 281 293 301 305 303 301 300 299 299 297
173 173 176 175 177 177 179 183 185 243 274 289 284 288 304 306 306 301 294 292 293 291
184 185 186 177 182 192 236 282 282 225 216 228 293 304 304 303 280 307 299 296 295 294
200 214 224 237 260 288 288 286 285 273 282 299 294 303 294 306 307 312 304 304 294 292
227 243 231 253 272 289 287 291 297 304 306 309 309 311 311 311 312 312 311 307 304 291
205 240 250 267 272 278 284 289 295 301 307 313 314 314 314 314 312 311 309 304 302 298
246 259 264 262 272 281 285 289 294 300 307 312 317 317 317 315 314 310 305 301 301 298
262 261 263 264 268 282 288 295 298 301 308 312 315 319 318 317 314 313 311 305 300 297
257 264 265 268 271 281 291 298 305 304 312 316 317 321 320 319 316 312 312 312 309 301
275 274 266 268 273 281 289 301 309 313 319 323 324 323 322 320 317 313 310 310 309 307